Private Wetterstation Kalkriese

Lat.: 52° 24' 26" Nord • Long.: 8° 04' 41" Ost • Höhe: 57 m ü. NN
Dienstag, 31. Januar 2023 • 02:04:53 (UTC+1)

Tagesübersicht
Dienstag, 31. Januar 2023


Werte bei Min., Max., etc. sind Tagesdaten (Beginn 00:00 Uhr), Diagramme zeigen den Verlauf der letzten 24 Stunden.

Letzte / Nächste Aktualisierung: 01:15 / 02:15

Außentemperatur (2 m ü. Erdboden)

 

Bodentemperatur (5 cm ü. Erdboden)

Minimum: 3,9 °C • 01:05   Minimum: 2,8 °C • 00:00
Maximum: 4,5 °C • 00:00   Maximum: 3,3 °C • 00:55
Durchschnitt: 4,2 °C   Durchschnitt: 2,9 °C
 
mini_currentt   mini_currentt2

Taupunkt

 

Windchill

Minimum: 2,3 °C • 01:05   Minimum: 0,2 °C • 01:10
Maximum: 2,7 °C • 00:00   Maximum: 1,5 °C • 00:15
Durchschnitt: 2,5 °C   Durchschnitt: 0,9 °C
 
mini_currenttp   mini_currentwc

Außenluftfeuchtigkeit

 

Luftdruck

Minimum: 89 % • 00:00   Minimum: 1019,5 hPa • 01:15
Maximum: 90 % • 01:10   Maximum: 1019,8 hPa • 00:25
Durchschnitt: 89 %   Durchschnitt: 1019,7 hPa
 
mini_currentf   mini_currentd

Niederschlag

 

 

heutiger Tag: 0,0 l/m²   akt. Woche: 3,8 l/m²
letzten 24 Std.: 3,8 l/m²   akt. Monat: 95,8 l/m²
Regendauer Tag: 0 Minuten   akt. Jahr: 95,8 l/m²
 
mini_currentr   mini_currentxt

Windgeschwindigkeit

 

Windböen

Maximum: 16,5 km/h • 5 Bft • W-SW • 01:10   Maximum: 25,7 km/h • 7 Bft • W-NW • 00:30
Durchschnitt: 13,8 km/h • 3 Bft   Durchschnitt: 22,3 km/h • 3 Bft
Dom. Windrichtung: W   Dom. Windrichtung: W
 
mini_currentw   mini_currentwb
 
mini_currentwr   mini_currentwdg

Windrichtung • Windstärke • Windböen

 

 

ddis_f_current   ddis_current
 
windbft_current    

Wolkenuntergrenze (berechnet)

 

Theta-E / Äquivalenttemperatur

mini_currentcl   mini_currentt7


Wetterdaten Tagesverlauf

Stundenwerte akt. Tag
 
Uhrzeit AT +2 m BT +5 cm ThetaE LF LD WG WR Solar UV-I
00:00 4,4 °C 2,8 °C 16,0 °C 89 % 1019,6 hPa 13,4 km/h W-SW 0 W/m² 0,0
01:00 4,0 °C 2,8 °C 15,5 °C 89 % 1019,6 hPa 10,4 km/h SW 0 W/m² 0,0
02:00 -- °C -- °C -- °C -- % -- hPa -- km/h -- -- W/m² --
03:00 -- °C -- °C -- °C -- % -- hPa -- km/h -- -- W/m² --
04:00 -- °C -- °C -- °C -- % -- hPa -- km/h -- -- W/m² --
05:00 -- °C -- °C -- °C -- % -- hPa -- km/h -- -- W/m² --
06:00 -- °C -- °C -- °C -- % -- hPa -- km/h -- -- W/m² --
07:00 -- °C -- °C -- °C -- % -- hPa -- km/h -- -- W/m² --
08:00 -- °C -- °C -- °C -- % -- hPa -- km/h -- -- W/m² --
09:00 -- °C -- °C -- °C -- % -- hPa -- km/h -- -- W/m² --
10:00 -- °C -- °C -- °C -- % -- hPa -- km/h -- -- W/m² --
11:00 -- °C -- °C -- °C -- % -- hPa -- km/h -- -- W/m² --
12:00 -- °C -- °C -- °C -- % -- hPa -- km/h -- -- W/m² --
13:00 -- °C -- °C -- °C -- % -- hPa -- km/h -- -- W/m² --
14:00 -- °C -- °C -- °C -- % -- hPa -- km/h -- -- W/m² --
15:00 -- °C -- °C -- °C -- % -- hPa -- km/h -- -- W/m² --
16:00 -- °C -- °C -- °C -- % -- hPa -- km/h -- -- W/m² --
17:00 -- °C -- °C -- °C -- % -- hPa -- km/h -- -- W/m² --
18:00 -- °C -- °C -- °C -- % -- hPa -- km/h -- -- W/m² --
19:00 -- °C -- °C -- °C -- % -- hPa -- km/h -- -- W/m² --
20:00 -- °C -- °C -- °C -- % -- hPa -- km/h -- -- W/m² --
21:00 -- °C -- °C -- °C -- % -- hPa -- km/h -- -- W/m² --
22:00 -- °C -- °C -- °C -- % -- hPa -- km/h -- -- W/m² --
23:00 -- °C -- °C -- °C -- % -- hPa -- km/h -- -- W/m² --


Wetterdaten Verlauf der letzten 24 Stunden

Stundenwerte ab Anfangszeit 01:00
 
Uhrzeit AT +2 m BT +5 cm ThetaE LF LD WG WR Solar UV-I
0:00 (vor 1 Std.) 4,3 °C 2,8 °C 16,0 °C 89 % 1019,6 hPa 11,3 km/h W 0 W/m² 0,0
23:00 (vor 2 Std.) 4,9 °C 3,9 °C 16,6 °C 88 % 1019,6 hPa 13,9 km/h W-NW 0 W/m² 0,0
22:00 (vor 3 Std.) 5,1 °C 3,3 °C 16,9 °C 86 % 1019,0 hPa 13,0 km/h W 0 W/m² 0,0
21:00 (vor 4 Std.) 5,6 °C 3,9 °C 17,9 °C 84 % 1018,3 hPa 13,4 km/h W 0 W/m² 0,0
20:00 (vor 5 Std.) 6,1 °C 5,0 °C 18,2 °C 84 % 1017,5 hPa 15,8 km/h W-SW 0 W/m² 0,0
19:00 (vor 6 Std.) 5,9 °C 5,0 °C 17,8 °C 83 % 1016,7 hPa 12,1 km/h W 0 W/m² 0,0
18:00 (vor 7 Std.) 6,6 °C 5,0 °C 19,1 °C 81 % 1016,1 hPa 15,3 km/h NW 0 W/m² 0,0
17:00 (vor 8 Std.) 7,0 °C 6,1 °C 19,3 °C 79 % 1014,8 hPa 15,8 km/h W-NW 0 W/m² 0,0
16:00 (vor 9 Std.) 6,9 °C 6,7 °C 19,4 °C 80 % 1013,4 hPa 18,6 km/h W-NW 45 W/m² 0,0
15:00 (vor 10 Std.) 7,0 °C 6,1 °C 19,2 °C 78 % 1011,9 hPa 18,6 km/h W-NW 93 W/m² 0,0
14:00 (vor 11 Std.) 6,7 °C 6,7 °C 19,4 °C 83 % 1011,0 hPa 21,3 km/h W-NW 83 W/m² 0,1
13:00 (vor 12 Std.) 5,4 °C 3,9 °C 18,7 °C 87 % 1010,9 hPa 21,6 km/h W-NW 25 W/m² 0,0
12:00 (vor 13 Std.) 6,7 °C 5,6 °C 19,3 °C 81 % 1009,9 hPa 21,5 km/h W-SW 61 W/m² 0,0
11:00 (vor 14 Std.) 6,6 °C 6,1 °C 19,1 °C 82 % 1010,2 hPa 23,9 km/h W-NW 88 W/m² 0,0
10:00 (vor 15 Std.) 6,4 °C 6,1 °C 18,7 °C 82 % 1010,0 hPa 19,4 km/h W 67 W/m² 0,0
9:00 (vor 16 Std.) 6,2 °C 5,0 °C 18,9 °C 85 % 1010,0 hPa 20,9 km/h W 32 W/m² 0,0
8:00 (vor 17 Std.) 6,2 °C 4,4 °C 19,5 °C 89 % 1009,8 hPa 13,4 km/h W 0 W/m² 0,0
7:00 (vor 18 Std.) 6,2 °C 4,4 °C 20,1 °C 93 % 1009,4 hPa 17,7 km/h W 0 W/m² 0,0
6:00 (vor 19 Std.) 6,1 °C 5,6 °C 19,9 °C 94 % 1009,0 hPa 19,3 km/h W-SW 0 W/m² 0,0
5:00 (vor 20 Std.) 5,6 °C 5,0 °C 18,8 °C 94 % 1009,2 hPa 22,2 km/h W-SW 0 W/m² 0,0
4:00 (vor 21 Std.) 5,2 °C 4,4 °C 18,2 °C 94 % 1009,7 hPa 19,6 km/h W-SW 0 W/m² 0,0
3:00 (vor 22 Std.) 4,9 °C 4,4 °C 17,1 °C 93 % 1010,8 hPa 19,0 km/h SW 0 W/m² 0,0
2:00 (vor 23 Std.) 4,2 °C 3,3 °C 16,0 °C 92 % 1011,7 hPa 16,7 km/h W-SW 0 W/m² 0,0
1:00 (vor 24 Std.) 4,2 °C 3,3 °C 15,8 °C 91 % 1012,0 hPa 19,3 km/h SW 0 W/m² 0,0